Regional Weather Roundup
Issued by NWS

Home | Current Version | Previous Version | Graphics & Text | Print | Product List | Glossary On
Versions: 1 2 3 4 5 6 7 8 9 10 11 12 13 14 15 16 17 18 19 20 21 22 23 24 25 26 27 28 29 30 31 32 33 34 35 36 37 38 39 40 41 42 43 44 45 46 47 48 49 50
000
ASUS43 KBIS 230710
RWRND

NORTH DAKOTA REGIONAL WEATHER ROUNDUP
NATIONAL WEATHER SERVICE BISMARCK ND
100 AM CST MON JAN 23 2017

NOTE: "FAIR" INDICATES FEW OR NO CLOUDS BELOW 12,000 FEET WITH NO
SIGNIFICANT WEATHER AND/OR OBSTRUCTIONS TO VISIBILITY.


NDZ001>003-009>011-017-230800-
NORTHWEST NORTH DAKOTA

CITY           SKY/WX    TMP DP  RH WIND       PRES   REMARKS
WILLISTON      CLOUDY    27  23  85 SW5       29.79F
MINOT          CLOUDY    29  25  85 W9        29.76F
MINOT AFB      CLOUDY    27  23  86 W12       29.75F WCI  16
$$

NDZ018>021-031>035-040>046-230800-
SOUTHWEST NORTH DAKOTA

CITY           SKY/WX    TMP DP  RH WIND       PRES   REMARKS
BISMARCK       CLOUDY    31  25  78 W8        29.83S
DICKINSON      CLOUDY    25  20  81 NW6       29.77F WCI  18
GARRISON         N/A     28  22  78 NW12      29.78S WCI  18
HETTINGER ARPT CLOUDY    23  22  96 N9        29.80F WCI  13
$$

NDZ004>008-012>016-024-026-027-054-230800-
NORTHEAST NORTH DAKOTA

CITY           SKY/WX    TMP DP  RH WIND       PRES   REMARKS
GRAND FORKS    CLOUDY    33  28  81 W10       29.77S
GRND FRKS AFB  CLOUDY    31  27  84 NW9       29.76F
DEVILS LAKE    CLOUDY    29  27  92 W13       29.75F WCI  19
$$

NDZ022-023-025-028>030-036>039-047>053-230800-
SOUTHEAST NORTH DAKOTA

CITY           SKY/WX    TMP DP  RH WIND       PRES   REMARKS
FARGO          CLOUDY    34  30  85 W5        29.79S
JAMESTOWN      CLOUDY    32  27  81 NW12      29.79R
$$




USA.gov is the U.S. government's official web portal to all federal, state and local government web resources and services.